CAPE
767 813 668 389 311 207 194 288 379 481 1387 2147 2129 2128 2295 2493 2377 1824 1680 1399 1162 1720 1965 1664 2485 1346 1947 2361 2324 2265 2418 2072 1771
613 859 790 520 374 276 243 342 427 577 1278 2186 2146 2037 2381 2540 2575 1964 1305 1420 1403 1262 1664 1205 2341 1971 1558 2226 2311 2309 2707 2246 2057
360 755 881 709 509 328 256 330 481 658 1531 2183 2017 1707 2054 2250 2394 2377 2061 1719 1678 1667 2172 694 571 2092 2007 1600 2034 2387 2596 2196 2154
247 609 946 804 649 430 253 324 483 819 1576 1876 1937 1595 1890 2015 2116 2139 2235 1990 1995 2217 2312 2555 2288 2459 2233 1925 2335 2384 2591 2416 2122
266 617 940 838 724 437 269 493 590 889 1258 1565 1821 1712 2053 2102 2191 1896 1874 1906 1919 2017 2305 2405 2015 1954 2078 1990 2322 2263 2369 2225 2285
142 690 908 830 701 309 302 587 1048 1359 1540 1482 1702 1722 1699 1962 2213 2194 1836 2028 2101 2020 2213 2430 2368 2123 2620 2319 2322 2249 2076 2231 2410
99 889 916 805 613 405 403 773 1940 2056 1883 1629 1737 1592 1554 1980 2400 2393 2351 2293 2405 2056 2596 3141 2978 2821 2725 2611 2378 2549 2316 2414 2503
153 952 923 784 543 523 589 1295 2168 2396 2299 2130 2085 1283 1858 2496 2724 2781 2949 2813 2832 3031 3237 3426 3341 3306 3083 2746 2757 2443 2711 2041 1827
76 959 918 750 719 897 779 1328 2183 2599 2533 2753 1598 1377 1768 2762 3093 3100 3118 3399 3325 3453 3665 3715 3532 3074 2910 2443 1967 811 1079 1767 1488
101 1019 1017 1052 1067 1082 1150 1374 2352 2754 2893 2650 1723 2015 2371 3149 3252 3605 3797 3810 3841 3843 3963 3545 3166 3169 2857 2929 1481 293 502 426 1603
207 476 1085 1411 1296 1131 1478 1628 2151 2821 2879 2420 2351 2658 2886 3434 3509 3208 3450 4012 3918 4014 3659 3389 3320 3189 2688 2824 874 164 75 60 1244
350 504 1176 1375 1360 1276 1513 1837 2417 2821 2883 2606 2457 2566 2807 3150 2971 3056 3617 3931 4125 3655 3322 3444 2773 2847 2707 2668 345 0 0 265 808
802 884 1168 1429 1351 1219 1466 2006 2332 2705 2820 2723 2760 2553 2601 2831 2964 3573 3919 4231 3947 3393 3158 3082 2813 2641 2501 1869 173 0 0 108 113
1503 1017 1216 1380 1361 1237 1577 1966 2365 2636 2184 2104 1985 1966 2443 2871 3542 4098 4296 3865 3622 3438 3127 2905 2473 2276 1940 1405 443 0 0 0 32
2158 1118 1245 1498 1465 1347 1762 2062 2619 2056 1890 1899 1889 2170 3069 3984 4263 4018 3761 3829 3714 3448 3077 2918 2385 1931 1451 550 0 0 0 0 0
2185 1425 1138 1427 1485 1445 1615 2017 2368 2024 1976 2069 2829 3346 4139 4257 4191 4076 3826 3981 3694 3293 3044 2052 1838 1442 879 350 0 0 0 0 0
2244 1547 1164 1416 1500 1543 1716 2132 2021 1927 2070 2690 3533 3956 4110 4185 4154 3904 3551 3185 2990 2329 1733 1391 1113 1072 886 567 88 0 0 0 0
3063 2601 1836 1680 1748 1687 1857 1792 1864 2309 2424 2793 3051 3840 3807 4035 3528 3092 2525 423 1063 1056 43 145 950 1032 874 520 142 0 0 0 0
2968 3005 3211 2586 2260 2091 1840 1741 2113 2762 2710 2754 3102 3633 3265 3251 2814 2458 903 259 5 0 0 0 80 166 93 0 0 0 0 0 0
2862 2892 3248 3279 2904 2648 2272 1913 1837 2482 2439 2421 2759 2993 2812 2849 2096 1895 1426 722 125 101 0 0 0 0 0 0 0 0 0 0 0
CIN
-62 -77 -89 -135 -127 -132 -115 -86 -74 -66 -33 -54 -51 -42 -32 -17 -12 -8 -1 -12 -1 -15 -5 -2 -15 -32 -13 -0 -1 -0 -0 -1 -0
-41 -70 -84 -102 -118 -132 -113 -95 -102 -102 -56 -49 -54 -38 -36 -21 -15 -6 -2 -0 -3 -1 -1 -48 -7 -16 -21 -1 -1 -2 -0 -1 -1
-38 -70 -73 -72 -83 -102 -102 -103 -110 -95 -39 -41 -42 -30 -35 -18 -14 -13 -2 -0 -1 -4 -4 -241 -19 -4 -6 -21 -10 -2 -1 -0 -5
-31 -53 -74 -67 -67 -84 -111 -131 -107 -79 -29 -32 -33 -25 -23 -24 -18 -14 -11 -0 -0 -1 -1 -0 -0 -2 -1 -1 -0 -0 -0 -7 -8
-29 -54 -66 -57 -68 -74 -112 -89 -75 -59 -40 -19 -41 -58 -34 -23 -26 -15 -8 -6 -1 -0 -0 -1 -17 -16 -6 -1 -0 -1 -5 -8 -0
-54 -46 -71 -69 -62 -97 -94 -67 -55 -55 -46 -40 -52 -54 -37 -30 -33 -25 -15 -9 -0 -1 -1 -0 -1 -2 -1 -0 -0 -2 -11 -1 -0
-26 -61 -69 -57 -61 -59 -88 -72 -58 -56 -67 -72 -64 -84 -50 -35 -48 -30 -23 -14 -7 -12 -0 -0 -0 -0 -1 -1 -2 -2 -1 -0 -4
-39 -64 -64 -55 -50 -69 -83 -79 -110 -78 -73 -43 -70 -135 -53 -43 -56 -60 -34 -22 -6 -0 -0 -0 -1 -0 -0 -0 -0 -2 -1 -8 -3
-42 -59 -67 -59 -49 -52 -87 -93 -139 -126 -106 -78 -161 -157 -95 -49 -58 -69 -54 -20 -23 -4 -0 -0 -1 -2 -3 -6 -35 -92 -57 -16 -15
-39 -58 -62 -65 -67 -42 -79 -91 -134 -155 -144 -135 -178 -154 -97 -62 -75 -59 -39 -18 -14 -3 -0 -0 -1 -0 -0 -0 -66 -185 -132 -114 -8
-37 -44 -73 -69 -50 -46 -65 -93 -125 -152 -183 -191 -180 -147 -102 -61 -49 -65 -42 -17 -16 -1 -2 -1 -1 -2 -3 -4 -125 -251 -154 -77 -10
-51 -46 -71 -76 -51 -57 -71 -94 -124 -155 -169 -194 -206 -168 -113 -77 -94 -80 -41 -19 -0 -4 -2 -1 -13 -6 -2 -5 -207 -0 -0 -101 -0
-80 -35 -55 -52 -54 -64 -53 -100 -150 -177 -188 -211 -212 -207 -169 -148 -119 -43 -25 -0 -1 -8 -5 -5 -2 -1 -1 -51 -241 -0 -0 -108 -30
-149 -103 -80 -79 -61 -58 -82 -134 -191 -241 -265 -279 -287 -256 -215 -155 -92 -33 -1 -4 -3 -3 -4 -1 -1 -9 -23 -47 -178 -0 -0 -0 -155
-215 -199 -123 -140 -106 -76 -111 -159 -230 -276 -267 -280 -297 -257 -162 -79 -41 -23 -10 -1 -1 -1 -1 -2 -8 -22 -33 -145 -0 -0 -0 -0 -0
-175 -241 -228 -194 -166 -132 -159 -186 -251 -246 -276 -282 -178 -113 -40 -33 -29 -2 -5 -0 -0 -1 -2 -21 -21 -31 -34 -135 -0 -0 -0 -0 -0
-170 -211 -240 -193 -194 -169 -171 -211 -235 -205 -201 -164 -82 -26 -10 -2 -0 -0 -3 -1 -11 -13 -22 -18 -20 -11 -4 -62 -180 -0 -0 -0 -0
-115 -143 -177 -203 -196 -193 -196 -239 -190 -138 -105 -64 -32 -0 -0 -0 -1 -2 -41 -480 -10 -93 -385 -120 -2 -3 -5 -45 -121 -0 -0 -0 -0
-117 -128 -109 -159 -191 -202 -208 -237 -143 -104 -97 -49 -4 -0 -3 -0 -7 -17 -219 -389 -465 -0 -0 -0 -316 -198 -234 -0 -0 -0 -0 -0 -0
-111 -122 -99 -76 -119 -129 -137 -157 -157 -100 -78 -53 -20 -1 -3 -2 -5 -10 -77 -203 -349 -336 -0 -0 -0 -0 -0 -0 -0 -0 -0 -0 -0
Wind_Speed
13 18 19 20 21 21 21 21 20 19 17 18 18 19 19 16 14 14 15 16 13 7 17 11 10 10 8 13 14 16 16 15 15
9 14 18 19 21 22 21 18 20 21 18 17 17 17 16 16 14 17 13 18 9 13 7 15 8 10 9 10 11 13 13 14 13
6 10 17 21 21 21 19 17 17 18 17 18 16 15 15 12 14 14 16 5 20 25 18 17 14 9 9 10 11 10 11 11 11
6 8 15 18 19 19 19 19 18 19 18 16 15 14 14 13 12 10 10 10 4 25 15 13 11 12 14 13 11 11 10 9 12
7 6 11 15 18 19 21 21 20 19 16 16 18 15 10 13 10 11 9 11 4 11 20 14 12 13 14 14 13 11 10 13 20
10 3 10 15 17 19 23 22 19 17 16 17 20 21 18 13 12 12 10 8 9 4 15 19 14 16 14 15 14 13 14 12 14
9 1 13 16 18 20 22 22 17 18 20 27 24 18 21 19 16 13 10 10 11 3 15 17 16 13 14 11 13 11 14 15 14
9 2 15 14 17 20 23 20 18 19 21 25 22 18 18 17 16 11 8 12 15 9 15 15 16 11 10 10 11 10 12 13 15
10 5 17 15 23 16 22 21 18 20 20 18 16 17 15 12 13 10 10 12 15 9 6 6 8 7 7 7 13 14 13 15 18
11 7 19 15 22 23 23 24 19 18 21 22 19 14 13 12 14 10 11 14 14 14 11 6 6 6 6 9 12 12 13 16 19
18 7 17 13 17 21 21 23 18 16 20 21 20 16 16 17 14 8 9 12 14 14 17 11 7 7 6 8 11 11 13 15 18
25 9 14 13 17 21 15 20 14 16 18 18 17 16 16 17 17 11 7 7 11 13 15 11 7 8 8 8 10 12 13 13 11
20 11 8 10 11 13 13 15 14 15 17 17 15 14 16 17 18 15 8 7 8 12 12 10 11 9 9 9 10 13 15 19 20
17 17 5 6 7 11 11 12 14 15 16 16 16 15 15 15 14 14 12 9 10 11 12 9 9 9 8 9 10 13 15 19 19
16 15 10 8 6 8 10 12 13 13 13 13 13 13 14 14 11 12 10 8 10 11 9 8 6 6 7 9 11 13 15 18 19
14 10 9 10 9 7 7 9 10 13 11 12 11 11 12 11 13 10 9 9 8 8 7 7 5 5 6 9 10 12 14 18 20
10 10 8 5 5 6 6 7 6 7 7 8 9 8 8 10 11 9 8 7 6 2 3 2 3 4 6 8 10 12 13 16 16
11 9 8 7 4 4 3 3 4 5 5 7 10 9 9 10 8 7 4 2 5 2 8 11 3 5 8 8 9 14 17 20 20
11 10 10 8 8 8 5 4 4 5 7 9 11 11 11 12 10 9 7 5 5 7 7 9 11 11 10 14 12 13 16 19 19
11 10 10 8 8 9 7 6 6 5 8 11 14 14 14 13 13 12 10 12 11 9 11 10 11 11 12 12 10 14 16 16 16
Wind_Direction
133 155 156 157 159 158 154 155 153 153 144 150 152 154 156 149 143 143 158 171 159 79 260 137 69 63 18 275 86 127 102 116 127
97 144 158 155 155 158 154 152 152 155 145 145 146 149 147 149 145 160 149 181 145 158 347 290 56 335 356 358 35 87 75 126 90
78 128 154 157 157 156 152 149 147 148 142 144 144 145 142 138 142 147 157 16 278 239 295 43 138 342 10 2 44 68 55 88 89
18 114 147 154 155 152 150 148 145 144 143 141 141 142 141 137 138 133 134 139 8 256 294 311 320 308 303 321 341 9 40 139 20
348 106 141 151 151 149 154 153 152 151 147 142 147 143 144 143 134 135 126 146 81 304 275 298 313 307 310 316 333 4 28 359 328
321 110 144 150 149 150 157 153 149 147 146 150 157 160 149 146 142 139 133 115 127 357 290 281 307 302 312 312 324 337 345 18 11
306 196 149 151 151 152 157 152 145 146 152 162 157 144 165 156 148 144 127 121 121 82 282 278 286 306 310 338 339 3 358 360 19
297 206 153 156 156 153 155 150 150 156 162 165 156 153 153 150 148 140 124 134 143 126 277 282 284 310 327 344 1 20 37 28 15
282 191 161 160 159 154 156 155 156 161 165 161 155 158 157 142 144 136 133 137 144 122 329 353 324 337 359 17 352 2 8 3 357
261 186 166 166 164 161 162 164 158 163 165 165 164 160 153 147 145 138 138 143 143 143 134 86 35 38 45 5 355 357 3 360 358
261 215 170 179 165 167 161 166 162 159 163 164 163 160 153 147 140 130 131 140 146 146 152 127 90 78 41 20 358 13 16 16 13
258 231 170 172 165 166 159 161 156 159 160 160 157 152 150 149 147 140 129 131 138 139 140 119 89 95 79 51 19 16 19 35 55
259 251 176 172 168 162 161 159 154 155 156 156 154 151 150 150 152 149 134 127 126 134 127 111 112 95 83 46 28 4 357 347 358
265 259 249 224 180 165 161 163 157 160 161 162 158 151 151 151 148 147 139 126 123 125 126 102 94 88 63 48 22 1 358 355 4
278 269 267 257 227 181 167 169 170 171 171 163 160 154 153 149 148 140 132 125 120 120 107 98 83 63 47 10 360 0 1 3 5
294 288 282 273 262 237 211 193 181 183 182 172 166 162 157 151 146 145 131 127 114 106 104 102 90 57 23 6 7 7 8 5 4
326 294 295 328 293 260 237 231 220 243 213 198 184 182 173 162 155 146 139 130 129 108 118 84 59 6 346 3 10 9 9 10 11
296 322 316 322 333 302 272 240 245 242 224 223 215 207 191 186 185 175 169 304 277 224 296 298 334 333 331 347 356 346 350 348 352
296 312 326 327 320 306 286 259 256 258 248 239 231 221 218 207 205 201 211 222 253 312 303 309 318 324 329 321 347 358 356 355 357
296 311 320 339 345 315 302 285 272 266 260 259 249 236 228 229 225 219 213 236 235 252 289 312 316 320 321 325 341 347 356 2 3